Regional Weather Roundup
Issued by NWS Cleveland, OH

Home | Current Version | Previous Version | Graphics & Text | Print | Product List | Glossary On
Versions: 1 2 3 4 5 6 7 8 9 10 11 12 13 14 15 16 17 18 19 20 21 22 23 24 25 26 27 28 29 30 31 32 33 34 35 36 37 38 39 40 41 42 43 44 45 46 47 48 49 50
000
ASUS41 KCLE 042302
RWRCLE
OHIO REGIONAL WEATHER ROUNDUP
NATIONAL WEATHER SERVICE CLEVELAND, OH
700 PM EDT WED MAY 04 2016

NOTE: "FAIR" INDICATES FEW OR NO CLOUDS BELOW 12,000 FEET WITH NO
SIGNIFICANT WEATHER AND/OR OBSTRUCTIONS TO VISIBILITY.

OHZ001>008-015>018-024>027-034-035-043-044-050000-
   NORTHWEST OHIO

CITY           SKY/WX    TMP DP  RH WIND       PRES   REMARKS
DEFIANCE       CLOUDY    47  38  71 W8G18     29.68R
FINDLAY        CLOUDY    49  40  71 W12       29.66R
TOLEDO EXPRESS CLOUDY    48  40  73 W14       29.65R
TOLEDO EXEC    CLOUDY    51  40  65 W9        29.65R
LIMA           CLOUDY    47  41  80 W14       29.68R
$$

OHZ009>014-019>023-028>033-038-089-050000-
   NORTHEAST OHIO

CITY           SKY/WX    TMP DP  RH WIND       PRES   REMARKS
CLE-HOPKINS    LGT RAIN  53  47  79 CALM      29.66R
CLE-LAKEFRONT  CLOUDY    53  48  83 NE8       29.65R
CUY CO. ARPT   CLOUDY    57  48  72 N6        29.66R
LORAIN-ELYRIA  LGT RAIN  50  46  86 SW6       29.65R FOG
ASHTABULA      PTSUNNY   60  38  43 NE5       29.63R
AKRON-CANTON   CLOUDY    53  45  74 W6        29.64R
WOOSTER        LGT RAIN  51  48  89 SW12      29.65R
MANSFIELD      LGT RAIN  48  47  96 W9        29.65R
YOUNGSTOWN     LGT RAIN  60  40  47 SW5       29.62R
$$

OHZ042-051>053-060>062-070>072-077>081-050000-
  SOUTHWEST OHIO

CITY           SKY/WX    TMP DP  RH WIND       PRES   REMARKS
CINC-COVINGTON MOSUNNY   56  39  53 NW20G25   29.70R
CINC-LUNKEN    PTSUNNY   55  39  54 NW9G22    29.72R
HAMILTON       MOSUNNY   54  37  52 NW20G26   29.72R
DAYTON         CLOUDY    49  39  68 NW20G25   29.71R
WRIGHT-PAT AFB CLOUDY    52  39  61 NW18      29.69R
DAYTON GENERAL PTSUNNY   52  36  54 NW17G24   29.70R
WILMINGTON     CLOUDY    53  41  63 NW17      29.68R
$$

OHZ036-037-039>041-045>050-054>059-063>069-073>076-082>088-050000-
  CENTRAL AND SOUTHEAST OHIO

CITY           SKY/WX    TMP DP  RH WIND       PRES   REMARKS
COLUMBUS       PTSUNNY   51  48  89 N6        29.65S
OSU AIRPORT    CLOUDY    52  42  69 W17       29.66R
BOLTON FIELD   PTSUNNY   54  43  66 NW18G26   29.67R
RICKENBACK AFB CLOUDY    51  48  91 W3        29.66S
NEWARK         LGT RAIN  51  46  83 NW5       29.65R
MARION         CLOUDY    49  43  80 W13       29.67R
LANCASTER      CLOUDY    50  46  86 NW3       29.67R
ZANESVILLE     CLOUDY    54  49  83 SW3       29.66R
NEW PHILLY     CLOUDY    55  42  61 VRB3      29.65R
$$



USA.gov is the U.S. government's official web portal to all federal, state and local government web resources and services.